ACA311 KJFK-KBOS

Flight info

Callsign ACA311
Flight time 0h 38m
Altitude 21000
Route MERIT ROBUC3
Aircraft B789/H-SDE1E2E3FGHIJ2J3J4J5M1RWXY/LB1D1

Departure

Time 2026-05-06 23:17
Airport John F. Kennedy International Airport (KJFK)

Arrival

Time 2026-05-06 23:55
Airport Boston Logan International Airport (KBOS)
Time Latitude Longitude Altitude Speed Heading
2026-05-06 23:04 40.63907 -73.78028 28 ft 0 kts 260°
2026-05-06 23:07 40.63907 -73.78027 26 ft 1 kts 260°
2026-05-06 23:08 40.63914 -73.77982 31 ft 8 kts 244°
2026-05-06 23:08 40.63958 -73.77945 31 ft 4 kts 189°
2026-05-06 23:08 40.63927 -73.77950 31 ft 7 kts 186°
2026-05-06 23:08 40.63877 -73.77941 28 ft 8 kts 166°
2026-05-06 23:09 40.63823 -73.77925 28 ft 8 kts 167°
2026-05-06 23:09 40.63759 -73.77909 29 ft 13 kts 173°
2026-05-06 23:09 40.63622 -73.77888 31 ft 24 kts 168°
2026-05-06 23:09 40.63526 -73.77733 30 ft 19 kts 86°
2026-05-06 23:10 40.63624 -73.77615 29 ft 25 kts 30°
2026-05-06 23:10 40.63823 -73.77460 31 ft 40 kts 30°
2026-05-06 23:10 40.64081 -73.77259 26 ft 40 kts 31°
2026-05-06 23:10 40.64305 -73.77083 29 ft 32 kts 31°
2026-05-06 23:11 40.64388 -73.77019 30 ft 2 kts 30°
2026-05-06 23:11 40.64406 -73.77022 31 ft 4 kts 326°
2026-05-06 23:11 40.64465 -73.77085 28 ft 18 kts 340°
2026-05-06 23:11 40.64615 -73.77092 29 ft 23 kts 358°
2026-05-06 23:12 40.64728 -73.77181 29 ft 10 kts 327°
2026-05-06 23:12 40.64738 -73.77185 30 ft 2 kts 354°
2026-05-06 23:12 40.64794 -73.77129 30 ft 6 kts 54°
2026-05-06 23:12 40.64795 -73.77128 30 ft 0 kts 55°
2026-05-06 23:13 40.64807 -73.77104 26 ft 10 kts 55°
2026-05-06 23:14 40.64880 -73.76968 27 ft 25 kts 54°
2026-05-06 23:14 40.64915 -73.76849 27 ft 8 kts 118°
2026-05-06 23:14 40.64876 -73.76752 27 ft 9 kts 116°
2026-05-06 23:14 40.64898 -73.76687 27 ft 15 kts 37°
2026-05-06 23:15 40.65027 -73.76583 25 ft 24 kts 30°
2026-05-06 23:15 40.65093 -73.76454 27 ft 13 kts 119°
2026-05-06 23:15 40.65035 -73.76369 28 ft 13 kts 167°
2026-05-06 23:15 40.64961 -73.76402 28 ft 13 kts 212°
2026-05-06 23:16 40.64869 -73.76476 27 ft 18 kts 211°
2026-05-06 23:16 40.64698 -73.76610 30 ft 54 kts 211°
2026-05-06 23:16 40.64172 -73.77030 26 ft 122 kts 212°
2026-05-06 23:16 40.63298 -73.77711 264 ft 156 kts 211°
2026-05-06 23:17 40.62327 -73.78485 990 ft 177 kts 213°
2026-05-06 23:17 40.61205 -73.79418 1828 ft 198 kts 216°
2026-05-06 23:17 40.59925 -73.80337 2508 ft 222 kts 212°
2026-05-06 23:17 40.58486 -73.81312 3217 ft 239 kts 211°
2026-05-06 23:18 40.56915 -73.82102 4196 ft 253 kts 189°
2026-05-06 23:18 40.55159 -73.81530 5201 ft 276 kts 152°
2026-05-06 23:18 40.53846 -73.79602 6156 ft 297 kts 118°
2026-05-06 23:18 40.53482 -73.76929 7021 ft 309 kts 83°
2026-05-06 23:19 40.54200 -73.74267 7871 ft 314 kts 56°
2026-05-06 23:19 40.55454 -73.71874 8715 ft 320 kts 50°
2026-05-06 23:19 40.56846 -73.69543 9570 ft 328 kts 47°
2026-05-06 23:19 40.58301 -73.67172 10227 ft 342 kts 47°
2026-05-06 23:20 40.59869 -73.64650 10508 ft 369 kts 47°
2026-05-06 23:20 40.61564 -73.61957 10785 ft 395 kts 47°
2026-05-06 23:20 40.63387 -73.59091 10878 ft 418 kts 47°
2026-05-06 23:20 40.65256 -73.56158 10877 ft 419 kts 47°
2026-05-06 23:21 40.67321 -73.53475 11018 ft 415 kts 29°
2026-05-06 23:21 40.69869 -73.51822 11721 ft 407 kts 15°
2026-05-06 23:21 40.72556 -73.50604 12272 ft 411 kts 12°
2026-05-06 23:21 40.75285 -73.49395 12876 ft 417 kts 14°
2026-05-06 23:22 40.77988 -73.47889 13458 ft 425 kts 19°
2026-05-06 23:22 40.80687 -73.46219 13992 ft 430 kts 19°
2026-05-06 23:22 40.83406 -73.44668 14555 ft 431 kts 16°
2026-05-06 23:22 40.86193 -73.43180 15105 ft 433 kts 16°
2026-05-06 23:23 40.88988 -73.41638 15652 ft 437 kts 17°
2026-05-06 23:23 40.91786 -73.40032 16173 ft 440 kts 18°
2026-05-06 23:23 40.94610 -73.38425 16685 ft 443 kts 17°
2026-05-06 23:23 40.97460 -73.36835 17213 ft 445 kts 17°
2026-05-06 23:24 41.00342 -73.35226 17693 ft 449 kts 18°
2026-05-06 23:24 41.03229 -73.33592 18172 ft 452 kts 18°
2026-05-06 23:24 41.06102 -73.31961 18581 ft 455 kts 17°
2026-05-06 23:24 41.09024 -73.30312 19001 ft 457 kts 17°
2026-05-06 23:25 41.11966 -73.28654 19377 ft 461 kts 16°
2026-05-06 23:25 41.14932 -73.26975 19786 ft 463 kts 16°
2026-05-06 23:25 41.17909 -73.25286 20205 ft 466 kts 16°
2026-05-06 23:25 41.20910 -73.23585 20610 ft 471 kts 16°
2026-05-06 23:26 41.23948 -73.21862 20843 ft 478 kts 15°
2026-05-06 23:26 41.26984 -73.20132 20838 ft 471 kts 15°
2026-05-06 23:26 41.29980 -73.18388 20831 ft 469 kts 19°
2026-05-06 23:26 41.32749 -73.16100 20843 ft 480 kts 31°
2026-05-06 23:27 41.35233 -73.13072 20855 ft 489 kts 44°
2026-05-06 23:27 41.37270 -73.09409 20855 ft 494 kts 57°
2026-05-06 23:27 41.38741 -73.05278 20855 ft 494 kts 70°
2026-05-06 23:27 41.39591 -73.00832 20854 ft 495 kts 82°
2026-05-06 23:28 41.40097 -72.96293 20852 ft 496 kts 82°
2026-05-06 23:28 41.40579 -72.91807 20838 ft 496 kts 83°
2026-05-06 23:28 41.41053 -72.87242 20843 ft 497 kts 83°
2026-05-06 23:28 41.41535 -72.82687 20846 ft 497 kts 83°
2026-05-06 23:29 41.42029 -72.78115 20851 ft 497 kts 83°
2026-05-06 23:29 41.42351 -72.75093 20854 ft 497 kts 83°
2026-05-06 23:29 41.42986 -72.69030 20855 ft 497 kts 83°
2026-05-06 23:29 41.43463 -72.64461 20858 ft 496 kts 83°
2026-05-06 23:30 41.43940 -72.59912 20837 ft 496 kts 83°
2026-05-06 23:30 41.44417 -72.55350 20846 ft 497 kts 83°
2026-05-06 23:30 41.44890 -72.50778 20849 ft 498 kts 83°
2026-05-06 23:30 41.45361 -72.46203 20848 ft 498 kts 83°
2026-05-06 23:31 41.45672 -72.43179 20850 ft 498 kts 83°
2026-05-06 23:31 41.46143 -72.38597 20848 ft 498 kts 83°
2026-05-06 23:31 41.46610 -72.34026 20849 ft 498 kts 83°
2026-05-06 23:31 41.47075 -72.29456 20846 ft 498 kts 83°
2026-05-06 23:32 41.47540 -72.24870 20823 ft 498 kts 83°
2026-05-06 23:32 41.48305 -72.20385 20848 ft 496 kts 70°
2026-05-06 23:32 41.49676 -72.16177 20832 ft 495 kts 62°
2026-05-06 23:32 41.51165 -72.12102 20573 ft 491 kts 62°
2026-05-06 23:33 41.52674 -72.08009 20002 ft 490 kts 63°
2026-05-06 23:33 41.54164 -72.03946 19550 ft 485 kts 63°
2026-05-06 23:33 41.55625 -71.99897 19120 ft 480 kts 66°
2026-05-06 23:33 41.56859 -71.95774 18622 ft 477 kts 69°
2026-05-06 23:34 41.58089 -71.91675 18238 ft 472 kts 69°
2026-05-06 23:34 41.59315 -71.87628 17703 ft 469 kts 69°
2026-05-06 23:34 41.60523 -71.83585 17220 ft 465 kts 70°
2026-05-06 23:34 41.61698 -71.79572 16740 ft 462 kts 70°
2026-05-06 23:35 41.62869 -71.75581 16277 ft 459 kts 69°
2026-05-06 23:35 41.64025 -71.71674 15875 ft 454 kts 69°
2026-05-06 23:35 41.65173 -71.67792 15853 ft 446 kts 69°
2026-05-06 23:35 41.66312 -71.63911 15398 ft 449 kts 70°
2026-05-06 23:36 41.67454 -71.60003 14834 ft 449 kts 69°
2026-05-06 23:36 41.68592 -71.56122 14368 ft 445 kts 69°
2026-05-06 23:36 41.69707 -71.52320 13884 ft 442 kts 70°
2026-05-06 23:36 41.70824 -71.48496 13383 ft 439 kts 69°
2026-05-06 23:37 41.71930 -71.44700 12922 ft 434 kts 69°
2026-05-06 23:37 41.73268 -71.41089 12328 ft 431 kts 58°
2026-05-06 23:37 41.74774 -71.37664 11847 ft 428 kts 60°
2026-05-06 23:37 41.76219 -71.34192 11375 ft 425 kts 60°
2026-05-06 23:38 41.77674 -71.30741 10918 ft 422 kts 60°
2026-05-06 23:38 41.79113 -71.27407 10859 ft 413 kts 59°
2026-05-06 23:38 41.80571 -71.24012 10857 ft 419 kts 60°
2026-05-06 23:38 41.82010 -71.20614 10859 ft 419 kts 60°
2026-05-06 23:39 41.83437 -71.17244 10860 ft 420 kts 60°
2026-05-06 23:39 41.84895 -71.13816 10858 ft 420 kts 60°
2026-05-06 23:39 41.86349 -71.10404 10860 ft 420 kts 59°
2026-05-06 23:39 41.87789 -71.07082 10860 ft 418 kts 59°
2026-05-06 23:40 41.89258 -71.03713 10859 ft 418 kts 59°
2026-05-06 23:40 41.90720 -71.00327 10859 ft 419 kts 59°
2026-05-06 23:40 41.92176 -70.96935 10860 ft 419 kts 59°
2026-05-06 23:40 41.93630 -70.93553 10790 ft 417 kts 59°
2026-05-06 23:41 41.95085 -70.90177 10446 ft 418 kts 59°
2026-05-06 23:41 41.96535 -70.86803 10151 ft 416 kts 59°
2026-05-06 23:41 41.97971 -70.83453 10038 ft 411 kts 59°
2026-05-06 23:41 41.99406 -70.80104 10038 ft 415 kts 59°
2026-05-06 23:42 42.00856 -70.76769 9935 ft 410 kts 56°
2026-05-06 23:42 42.02707 -70.73867 9533 ft 407 kts 44°
2026-05-06 23:42 42.04575 -70.71082 9284 ft 405 kts 46°
2026-05-06 23:42 42.06414 -70.68238 8439 ft 400 kts 46°
2026-05-06 23:43 42.08244 -70.65484 8020 ft 391 kts 45°
2026-05-06 23:43 42.10136 -70.62943 8020 ft 383 kts 33°
2026-05-06 23:43 42.12484 -70.61251 8037 ft 380 kts 14°
2026-05-06 23:43 42.15030 -70.60464 8046 ft 376 kts
2026-05-06 23:44 42.17609 -70.59729 8035 ft 377 kts
2026-05-06 23:44 42.20114 -70.59017 7220 ft 361 kts
2026-05-06 23:44 42.22584 -70.58338 5783 ft 358 kts
2026-05-06 23:44 42.24947 -70.57682 5039 ft 342 kts
2026-05-06 23:45 42.27337 -70.57017 5047 ft 358 kts
2026-05-06 23:45 42.29777 -70.56409 5043 ft 352 kts
2026-05-06 23:45 42.32164 -70.56723 5036 ft 340 kts 340°
2026-05-06 23:45 42.34276 -70.58007 5040 ft 329 kts 321°
2026-05-06 23:46 42.35979 -70.60011 5053 ft 325 kts 310°
2026-05-06 23:46 42.37622 -70.62152 5032 ft 329 kts 311°
2026-05-06 23:46 42.39267 -70.64300 5032 ft 327 kts 311°
2026-05-06 23:46 42.40877 -70.66421 5021 ft 327 kts 311°
2026-05-06 23:47 42.42502 -70.68567 5017 ft 326 kts 311°
2026-05-06 23:47 42.44135 -70.70718 5013 ft 327 kts 311°
2026-05-06 23:47 42.45762 -70.72858 4926 ft 324 kts 311°
2026-05-06 23:47 42.47418 -70.74961 4539 ft 327 kts 314°
2026-05-06 23:48 42.49083 -70.76900 4332 ft 300 kts 315°
2026-05-06 23:48 42.50629 -70.78627 4107 ft 275 kts 315°
2026-05-06 23:48 42.52048 -70.80173 3926 ft 251 kts 315°
2026-05-06 23:48 42.53426 -70.81660 3077 ft 255 kts 315°
2026-05-06 23:49 42.54755 -70.83070 3008 ft 238 kts 315°
2026-05-06 23:49 42.56055 -70.84483 2987 ft 231 kts 310°
2026-05-06 23:49 42.56690 -70.86264 2986 ft 204 kts 270°
2026-05-06 23:49 42.56283 -70.88025 2978 ft 189 kts 240°
2026-05-06 23:50 42.55548 -70.89444 2982 ft 181 kts 236°
2026-05-06 23:50 42.53750 -70.91844 2989 ft 184 kts 219°
2026-05-06 23:50 42.52580 -70.92654 2991 ft 190 kts 207°
2026-05-06 23:51 42.51360 -70.93296 2927 ft 194 kts 206°
2026-05-06 23:51 42.50067 -70.93920 2692 ft 193 kts 205°
2026-05-06 23:51 42.48858 -70.94501 2431 ft 173 kts 205°
2026-05-06 23:51 42.47796 -70.95016 2216 ft 150 kts 206°
2026-05-06 23:52 42.46863 -70.95475 2030 ft 141 kts 205°
2026-05-06 23:52 42.45952 -70.95919 1838 ft 136 kts 204°
2026-05-06 23:52 42.45063 -70.96352 1666 ft 136 kts 203°
2026-05-06 23:52 42.44183 -70.96781 1476 ft 133 kts 201°
2026-05-06 23:53 42.43294 -70.97200 1272 ft 137 kts 201°
2026-05-06 23:53 42.42407 -70.97630 1118 ft 137 kts 201°
2026-05-06 23:53 42.41475 -70.98083 929 ft 142 kts 200°
2026-05-06 23:53 42.40544 -70.98561 650 ft 143 kts 202°
2026-05-06 23:54 42.39613 -70.99008 445 ft 140 kts 197°
2026-05-06 23:54 42.38699 -70.99445 262 ft 135 kts 200°
2026-05-06 23:54 42.37834 -70.99862 117 ft 128 kts 199°
2026-05-06 23:54 42.37056 -71.00240 19 ft 100 kts 199°
2026-05-06 23:55 42.36381 -71.00555 30 ft 109 kts 197°
2026-05-06 23:55 42.35779 -71.00861 31 ft 59 kts 201°
2026-05-06 23:55 42.35605 -71.01001 30 ft 8 kts 265°
2026-05-06 23:55 42.35616 -71.01043 31 ft 10 kts 300°
2026-05-06 23:56 42.35658 -71.01121 31 ft 10 kts 303°
2026-05-06 23:56 42.35673 -71.01155 31 ft 2 kts 300°
2026-05-06 23:56 42.35679 -71.01169 30 ft 0 kts 300°
2026-05-06 23:57 42.35679 -71.01170 30 ft 0 kts 300°
2026-05-06 23:57 42.35687 -71.01188 31 ft 9 kts 302°
2026-05-06 23:57 42.35722 -71.01264 31 ft 10 kts 301°
2026-05-06 23:57 42.35752 -71.01350 31 ft 10 kts 292°
2026-05-06 23:58 42.35780 -71.01467 31 ft 15 kts 289°
2026-05-06 23:58 42.35815 -71.01584 31 ft 6 kts 319°
2026-05-06 23:58 42.35855 -71.01578 30 ft 7 kts 21°
2026-05-06 23:58 42.35896 -71.01554 31 ft 5 kts 24°